Other Public Products
Issued by NWS Grand Forks, ND

Home | Current Version | Previous Version | Graphics & Text | Print | Product List | Glossary On
Versions: 1 2 3 4 5 6 7 8 9 10 11 12 13 14 15 16 17 18 19 20 21 22 23 24 25 26 27 28 29 30 31 32 33 34 35 36 37 38 39 40 41 42 43 44 45 46 47 48 49 50
000
FPUS83 KFGF 011910
OPUFGF
PRAIRIE TO PINES WEATHER ROUNDUP
NATIONAL WEATHER SERVICE EASTERN NORTH DAKOTA/GRAND FORKS ND
200 PM CDT WED APR 01 2015

 **SATELLITE DATA USED TO AUGMENT SKY COVER AT AUTOMATED STATIONS**
 *****  WEATHER ACROSS EASTERN NORTH DAKOTA  *****

CITY           SKY/WX    TMP DP  RH WIND       PRES   REMARKS
GRAND FORKS    PTSUNNY   65  37  35 W13       29.32F
GRAND FORKS AF PTSUNNY   65  37  35 W14       29.33S
GRAND CITY NWS   N/A     64 N/A N/A SW9         N/A
BUXTON         NOT AVBL
DEVILS LAKE    CLOUDY    54  39  58 W26       29.41R
FARGO          CLOUDY    72  35  25 SW20G30   29.35R
WAHPETON ARPT  CLOUDY    68  34  28 SW18G25   29.38F
$$

 *****  WEATHER ACROSS CENTRAL AND WESTERN NORTH DAKOTA  *****

CITY           SKY/WX    TMP DP  RH WIND       PRES   REMARKS
JAMESTOWN      PTSUNNY   62  39  42 W31G46    29.43R
BISMARCK       CLOUDY    59  31  34 NW23G35   29.57R
MINOT          PTSUNNY   58  36  43 W28G37    29.50R
MINOT AFB      PTSUNNY   55  42  61 NW29G36   29.50R
GARRISON         N/A     58  32  37 W24G37    29.54R
WILLISTON      MOSUNNY   53  29  39 W29G36    29.63S
DICKINSON      MOSUNNY   54  26  34 W32G45    29.62R
HETTINGER      MOSUNNY   58  20  22 W37G46    29.66S
$$

 *****  OTHER OBSERVATIONS NORTHEAST NORTH DAKOTA  *****

CITY           SKY/WX    TMP DP  RH WIND       PRES   REMARKS
WALHALLA       NOT AVBL
LANGDON        NOT AVBL
CAVALIER       FAIR      59  41  51 W14       29.33S
GRAFTON        NOT AVBL
CANDO          NOT AVBL
FORT TOTTEN      N/A     53  38  56 NW12      29.95S
ROLLA          MOCLDY    54  43  66 W20G28    29.42R
RUGBY          NOT AVBL
 ***** THE ABOVE OBSERVATIONS ARE NON NWS ARE NOT QUALITY
        CONTROLLED AND MAY MIS-REPORT RAIN FOR SNOW...
$$

 *****  OTHER OBSERVATIONS SOUTHEAST NORTH DAKOTA *****

CITY           SKY/WX    TMP DP  RH WIND       PRES   REMARKS
COOPERSTOWN    NOT AVBL
VALLEY CITY    FAIR      63  39  42 NW30G37   29.40R
OAKES            N/A     64  41  42 W29G39    29.43R
GWINNER        CLEAR     66  37  34 W24         N/A
BUFFALO        NOT AVBL
WYNDMERE         N/A     70  36  28 W20         N/A
 ***** THE ABOVE OBSERVATIONS ARE NON NWS ARE NOT QUALITY
       CONTROLLED AND MAY MIS-REPORT RAIN FOR SNOW...
$$

  *****  WEATHER ACROSS NORTHERN MINNESOTA  *****

CITY           SKY/WX    TMP DP  RH WIND       PRES   REMARKS
FLAG ISLAND    MOSUNNY   50  32  50 SE7       29.39F
WARROAD        PTSUNNY   59  41  51 S12       29.38F
ROSEAU         PTSUNNY   63  39  42 SE13      29.35F
HALLOCK        PTSUNNY   64  39  39 SW10G16   29.32R
THF RVR FALLS  CLOUDY    64  39  39 S16       29.33F
HALSTAD        NOT AVBL
FOSSTON        CLOUDY    64  37  36 S21       29.35F
BAUDETTE       PTSUNNY   61  37  41 S16       29.39F
WASKISH        CLOUDY    61  37  41 S3G21     29.41F
CROOKSTON      PTSUNNY   70  37  30 SW16      29.33F
$$
  *****  WEATHER ACROSS CENTRAL AND WEST MINNESOTA  *****

CITY           SKY/WX    TMP DP  RH WIND       PRES   REMARKS
BEMIDJI        CLOUDY    63  37  39 S15G21    29.40F
PARK RAPIDS    CLOUDY    71  40  32 S25G33    29.40F
WADENA         CLOUDY    66  41  39 S17G23    29.43S
DETROIT LAKES  CLOUDY    68  39  34 S17       29.39F
MOORHEAD       CLOUDY    70  25  18 SW22      29.36R
FERGUS FALLS   CLOUDY    70  36  28 SW25G31   29.42S
ELBOW LAKE     FAIR      65  45  48 S14       29.43S THUNDER
MORRIS MN      CLOUDY    72  45  37 SW15      29.45R
STAPLES        CLOUDY    66  36  32 S20G26    29.45F
WHEATON        CLOUDY    64  39  39 W5        29.43F
$$
  *****  WEATHER ELSEWHERE ACROSS MINNESOTA  *****

CITY           SKY/WX    TMP DP  RH WIND       PRES   REMARKS
DULUTH         CLOUDY    44  32  62 SE10      29.61F
INTRNTL FALLS  PTSUNNY   61  34  36 S9G24     29.45F
ELY            PTSUNNY   52  30  43 SE14G24   29.58F
CLOQUET        CLOUDY    45  32  61 E10       29.58F THUNDER
BRAINERD       CLOUDY    67  37  33 S15       29.48F
HIBBING        NOT AVBL
ALEXANDRIA     CLOUDY    69  42  37 SW16      29.47S
SAINT CLOUD    CLOUDY    72  34  24 S24G36    29.47F
MINNEAPOLIS    PTSUNNY   78  34  20 S33G43    29.57F
$$

  *****  WEATHER ACROSS SOUTH DAKOTA  *****

CITY           SKY/WX    TMP DP  RH WIND       PRES   REMARKS
SIOUX FALLS    PTSUNNY   81  43  26 S28G39    29.52F
BROOKINGS      PTSUNNY   75  45  33 SW26G37   29.49S
WATERTOWN      CLOUDY    70  42  36 SW18G28   29.47F
HURON          CLOUDY    67  32  27 NW21      29.50R
SISSETON         N/A     74  40  29 W25G44    29.35S
ABERDEEN       LGT RAIN  70  39  32 NW25G33   29.46R
MITCHELL       CLOUDY    74  30  19 W20G31    29.52R
PIERRE         PTSUNNY   67  39  35 NW24G37   29.59R
MOBRIDGE       PTSUNNY   65  35  33 NW30G38   29.54R
RAPID CITY     MOSUNNY   58  31  35 N33G45    29.71R
$$

  *****  SOME WEATHER IN NEARBY STATES *****

CITY           SKY/WX    TMP DP  RH WIND       PRES   REMARKS
GLASGOW MT     PTSUNNY   53  24  32 W28G37    29.71S
GREAT FALLS MT PTSUNNY   48   8  19 W24G38    29.82F
CHEYENNE WY    CLOUDY    58  26  29 N13       29.79F
SCOTTSBLUFF NE LGT RAIN  73  27  18 W22G35    29.69F
OMAHA NE       PTSUNNY   82  48  30 S21G39    29.66F
DES MOINES IA  PTSUNNY   80  35  19 S26G38    29.77F
DAVENPORT IA   SUNNY     78  33  19 S23G32    29.88F
CHICAGO IL     MOSUNNY   69  34  27 S13       29.96F
EAU CLAIRE WI  PTSUNNY   72  34  24 S24G32    29.68F
LA CROSSE WI   SUNNY     76  35  22 S23G29    29.73F
$$

  *****  SOME NATIONAL WEATHER *****

CITY           SKY/WX    TMP DP  RH WIND       PRES   REMARKS
LA GUARDIA NY  PTSUNNY   46  20  35 NW9       30.08S
RALEIGH NC     MOSUNNY   64  30  27 NE9       30.12F
ATLANTA GA     PTSUNNY   77  48  35 VRB3      30.05F
NEW ORLEANS LA PTSUNNY   79  61  53 S12       30.06F
OKLAHOMA CITY  MOSUNNY   79  59  50 S17G25    29.80F
ALBUQUERQUE NM MOSUNNY   72  25  17 W22G30    29.96F
SALT LAKE CITY MOSUNNY   47  21  35 NW14      30.11F
LOS ANGELES CA MOSUNNY   67  55  65 W15       30.01S
BOISE ID       SUNNY     47  26  44 NW12G18   30.19F
SEATTLE WA     PTSUNNY   50  38  63 SW8       30.29F
$$

*** WEATHER ACROSS MANITOBA...SASKATCHEWAN AND ONTARIO ***
                ***ONTARIO***

CITY           SKY/WX    TMP DP  RH WIND       PRES   REMARKS
GERALDTON      CLOUDY    39  25  56 S14G23    29.88F
THUNDER BAY    CLOUDY    32  30  93 E18       29.80F WCI  20
SIOUX LOOKOUT  PTSUNNY   45  28  53 SE13G21   29.55F
TORONTO        MOSUNNY   41   9  26 SE7       30.17S
BIG TROUT LK   SUNNY     43  27  52 SE6       29.72F
PICKLE LAKE    CLOUDY    41  27  56 SE20      29.69F
DRYDEN         MOSUNNY   48  30  49 SE22      29.50F
KENORA         PTSUNNY   52  32  46 S16G23    29.43F
$$
                *** MANITOBA***

CITY           SKY/WX    TMP DP  RH WIND       PRES   REMARKS
BRANDON        PTSUNNY   55  45  67 NW26G32   29.38F
DAUPHIN        PTSUNNY   50  43  76 W13       29.36F
ISLAND LAKE    LGT RAIN  34  34 100 NE15G22   29.58F WCI  24
PILOT MOUND      N/A     52  39  62 W14G21      N/A
THE PAS        LGT RAIN  37  32  81 SE15      29.43R
THOMPSON       LGT SNOW  25  16  68 NE18      29.67F WCI  11
WINNIPEG       PTSUNNY   59  39  47 S17G24    29.33S
LYNN LAKE      FLURRIES  14  10  85 NE15G23   29.70S WCI  -1
CHURCHILL      CRYSTALS   1  -2  85 N15       30.02F WCI -18
GILLAM         CLOUDY    16   9  73 NE13      29.81F WCI   2
$$
                ***SASKATCHEWAN***

CITY           SKY/WX    TMP DP  RH WIND       PRES   REMARKS
ESTEVAN        CLOUDY    48  34  57 W28G39    29.56R
KINDERSLEY     LGT RAIN  43  25  49 W33G45    29.52F
LLOYDMINSTER   LGT RAIN  36  32  87 W12       29.37F
PRINCE ALBERT  LGT RAIN  39  37  93 NW5       29.41S
REGINA         PTSUNNY   48  32  53 W32G40    29.54S
YORKTON        CLOUDY    43  37  81 W16G22    29.45R



USA.gov is the U.S. government's official web portal to all federal, state and local government web resources and services.